This is the latest recevied weather packets stored in our database for station/object DL9GRB-13. If no packets are shown the sender has not sent any weather packets the latest 10 day(s).
| Time | Temp. | Humidity | Pressure | Rain* | Wind** | Luminosity | Snow |
|---|---|---|---|---|---|---|---|
| 1777787527 | 17.78° C | 68% | 1010.7 hPa | 0 mm | - | 96 W/m² | - |
| 1777787347 | 17.78° C | 68% | 1010.7 hPa | 0 mm | - | 90 W/m² | - |
| 1777787167 | 17.22° C | 70% | 1010.7 hPa | 0 mm | - | 120 W/m² | - |
| 1777786987 | 16.67° C | 69% | 1010.6 hPa | 0 mm | - | 108 W/m² | - |
| 1777786807 | 16.67° C | 70% | 1010.7 hPa | 0 mm | - | 112 W/m² | - |
| 1777786627 | 16.67° C | 69% | 1010.7 hPa | 0 mm | - | 108 W/m² | - |
| 1777786447 | 16.67° C | 69% | 1010.8 hPa | 0 mm | - | 135 W/m² | - |
| 1777786267 | 16.11° C | 72% | 1010.9 hPa | 0 mm | - | 117 W/m² | - |
| 1777786087 | 15.56° C | 73% | 1010.7 hPa | 0 mm | - | 118 W/m² | - |
| 1777785907 | 15° C | 75% | 1010.5 hPa | 0 mm | - | 130 W/m² | - |
| 1777785727 | 14.44° C | 75% | 1010.8 hPa | 0 mm | - | 134 W/m² | - |
| 1777785547 | 13.89° C | 78% | 1010.8 hPa | 0 mm | - | 137 W/m² | - |
| 1777785367 | 13.33° C | 80% | 1010.8 hPa | 0 mm | - | 133 W/m² | - |
| 1777785187 | 13.33° C | 80% | 1010.8 hPa | 0 mm | - | 125 W/m² | - |
| 1777785007 | 12.78° C | 81% | 1010.7 hPa | 0 mm | - | 98 W/m² | - |
| 1777784827 | 12.78° C | 81% | 1010.8 hPa | 0 mm | - | 57 W/m² | - |
| 1777784647 | 12.78° C | 81% | 1010.8 hPa | 0 mm | - | 45 W/m² | - |
| 1777784467 | 12.78° C | 81% | 1010.7 hPa | 0 mm | - | 38 W/m² | - |
| 1777784287 | 12.78° C | 81% | 1010.6 hPa | 0 mm | - | 37 W/m² | - |
| 1777784107 | 12.78° C | 81% | 1010.9 hPa | 0 mm | - | 37 W/m² | - |
| 1777783927 | 12.78° C | 80% | 1011 hPa | 0 mm | - | 38 W/m² | - |
| 1777783747 | 12.78° C | 81% | 1010.7 hPa | 0 mm | - | 42 W/m² | - |
| 1777783567 | 12.78° C | 81% | 1010.7 hPa | 0 mm | - | 44 W/m² | - |
| 1777783387 | 12.78° C | 80% | 1010.7 hPa | 0 mm | - | 42 W/m² | - |
| 1777783207 | 12.78° C | 80% | 1010.5 hPa | 0 mm | - | 36 W/m² | - |
* Rain latest hour (hover to see other rain measurements)
** Current wind speed in m/s (hover to see current wind gust speed)